User: anonymous   Login
Location: Unspecified
(0.0000°N, 0.0000°E)
Time: 21:08:02
(UTC+00:00)
Language:

Sich 1 - Orbit

View from above orbital plane
View from above orbital plane
View from above satellite
View from above satellite

Ground track
Ground track

The orbit data is extracted from the following two-line orbital elements,

1 23657U 95046A   18147.19552961 +.00000149 +00000-0 +14206-4 0  9997
2 23657 082.5256 297.5982 0022791 026.9768 333.2627 14.85964290228257
Epoch (UTC): 27 May 2018 04:41:33
Eccentricity: 0.0022791
inclination: 82.5256°
perigee height: 594 km
apogee height: 626 km
right ascension of ascending node: 297.5982°
argument of perigee: 26.9768°
revolutions per day: 14.85964290
mean anomaly at epoch: 333.2627°
orbit number at epoch: 22825

The dashed part of the orbit path shows where the satellite is in the earth's shadow,  

DLR